Seattle, WA
on Saturday, March 2, 2013

Saturday
Previous Day Next Day
Daily Summary
 ActualAverageRecord
Temperature
Mean Temperature °F 45°F  
Max Temperature 57°F 52°F 64°F (1990)
Min Temperature 41°F 38°F 22°F (1989)
Degree Days
Heating Degree Days 16 20  
Month to date heating degree days 25 40  
Since 1 July heating degree days 3166 3294  
Cooling Degree Days 0 0  
Month to date cooling degree days 0 0  
Year to date cooling degree days 0 0  
Moisture
Dew Point 43°F   
Average Humidity 75    
Maximum Humidity 83    
Minimum Humidity 66    
Precipitation
Precipitation 0.03 in 0.14 in 1.16 in (1987)
Month to date precipitation 0.19 0.27  
Year to date precipitation 5.93 9.34  
Snow
Snow 0.00 in in 1.70 in (1955)
Month to date snowfall 0.0  
Since 1 July snowfall 0.6  
Snow Depth 0.00 in   
Wind
Wind Speed 10 mph   
Max Wind Speed 18 mph   
Max Gust Speed 24 mph   
Visibility 10 miles   
Events Rain   

Key: T is trace of precipitation, MM is missing value
Source: NWS Daily Summary
Time(PST)TemperatureDew PointHumidity Pressure Visibility Wind DirectionWind SpeedGust SpeedPrecipitationEvents Conditions
12:53 AM 53.1°F 46.9°F 80% 30.30 in 10.0 miles South 8.1 mph - N/A   Mostly Cloudy
1:53 AM 53.1°F 46.0°F 77% 30.30 in 10.0 miles SSW 8.1 mph - N/A   Mostly Cloudy
2:53 AM 52.0°F 46.0°F 80% 30.28 in 10.0 miles South 5.8 mph - N/A   Overcast
3:53 AM 52.0°F 45.0°F 77% 30.26 in 10.0 miles South 5.8 mph - N/A   Overcast
4:53 AM 51.1°F 44.1°F 77% 30.24 in 10.0 miles SSE 8.1 mph - N/A   Overcast
5:01 AM 51.8°F 44.6°F 76% 30.21 in 10.0 miles SSE 8.1 mph - N/A   Overcast
5:53 AM 51.1°F 43.0°F 74% 30.23 in 10.0 miles SSE 9.2 mph - N/A   Overcast
6:53 AM 51.1°F 42.1°F 71% 30.22 in 10.0 miles SE 8.1 mph - N/A   Overcast
7:53 AM 51.1°F 43.0°F 74% 30.20 in 10.0 miles SE 9.2 mph - N/A   Overcast
8:53 AM 54.0°F 44.1°F 69% 30.19 in 10.0 miles South 13.8 mph - N/A   Overcast
9:53 AM 55.0°F 45.0°F 69% 30.19 in 10.0 miles South 12.7 mph - N/A   Overcast
10:53 AM 55.0°F 45.0°F 69% 30.17 in 10.0 miles SSW 12.7 mph - N/A   Overcast
11:53 AM 55.0°F 45.0°F 69% 30.16 in 10.0 miles SSW 12.7 mph - N/A   Overcast
12:53 PM 55.9°F 45.0°F 67% 30.14 in 10.0 miles SSW 12.7 mph 20.7 mph N/A   Overcast
1:53 PM 55.9°F 44.1°F 64% 30.12 in 10.0 miles SSW 15.0 mph 21.9 mph N/A   Overcast
2:51 PM 55.4°F 44.6°F 67% 30.09 in 10.0 miles SW 11.5 mph - 0.00 in   Overcast
2:53 PM 55.0°F 45.0°F 69% 30.11 in 10.0 miles SW 11.5 mph - 0.00 in   Overcast
3:32 PM 53.6°F 46.4°F 77% 30.08 in 10.0 miles SSW 11.5 mph 19.6 mph 0.03 in Rain Light Rain
3:51 PM 51.8°F 46.4°F 82% 30.08 in 10.0 miles SW 15.0 mph - 0.03 in   Overcast
3:53 PM 52.0°F 46.9°F 83% 30.09 in 10.0 miles SW 12.7 mph - 0.03 in   Overcast
4:14 PM 51.8°F 46.4°F 82% 30.09 in 10.0 miles SW 16.1 mph 24.2 mph N/A   Overcast
4:39 PM 50.0°F 42.8°F 76% 30.08 in 10.0 miles SSW 18.4 mph 23.0 mph N/A   Overcast
4:53 PM 48.9°F 41.0°F 74% 30.11 in 10.0 miles SW 16.1 mph - N/A   Overcast
5:21 PM 48.2°F 39.2°F 71% 30.11 in 10.0 miles SW 11.5 mph 19.6 mph N/A   Overcast
5:53 PM 46.9°F 41.0°F 80% 30.16 in 10.0 miles WNW 10.4 mph - N/A   Overcast
6:53 PM 46.0°F 37.9°F 73% 30.17 in 10.0 miles WSW 10.4 mph 17.3 mph 0.00 in Rain Light Rain
7:53 PM 44.1°F 37.9°F 79% 30.19 in 10.0 miles NE 6.9 mph - 0.00 in   Overcast
8:53 PM 44.1°F 37.9°F 79% 30.21 in 10.0 miles SSW 5.8 mph - N/A   Overcast
9:53 PM 44.1°F 37.0°F 76% 30.21 in 10.0 miles South 8.1 mph - N/A   Overcast
10:53 PM 43.0°F 36.0°F 76% 30.22 in 10.0 miles SSW 10.4 mph - N/A   Overcast
11:53 PM 41.0°F 34.0°F 76% 30.22 in 10.0 miles SW 8.1 mph - N/A   Mostly Cloudy
Moon Phase
Mar. 02 Mar. 04 Mar. 11 Mar. 19 Mar. 27
Sunrise:06:47 AM (PST) Moon Rise:No Moon Rise/
Sunset:05:56 PM (PST) Moon Set:08:54 AM (PST)3/2

Copyright © 2014 The Weather Underground, Inc.